Time,TemperatureF,DewpointF,PressureIn,WindDirection,WindDirectionDegrees,WindSpeedMPH,WindSpeedGustMPH,Humidity,HourlyPrecipIn,Conditions,Clouds,dailyrainin,SoftwareType,DateUTC
2013-08-17 00:04:00,62.6,53.5,29.66,NW,315,0.0,0.0,72,0.00,,,0.00,WUHU216HW,2013-08-17 07:04:00,
2013-08-17 00:09:00,62.6,53.5,29.66,NW,315,0.0,0.0,72,0.00,,,0.00,WUHU216HW,2013-08-17 07:09:00,
2013-08-17 00:30:00,61.9,52.5,29.67,North,0,0.0,0.0,71,0.00,,,0.00,WUHU216HW,2013-08-17 07:30:00,
2013-08-17 00:35:00,61.9,52.5,29.67,North,0,0.0,0.0,71,0.00,,,0.00,WUHU216HW,2013-08-17 07:35:00,
2013-08-17 00:40:00,61.9,52.5,29.67,North,0,0.0,0.0,71,0.00,,,0.00,WUHU216HW,2013-08-17 07:40:00,
2013-08-17 00:59:00,61.2,52.2,29.67,South,180,0.0,0.0,72,0.00,,,0.00,WUHU216HW,2013-08-17 07:59:00,
2013-08-17 01:04:00,61.2,52.2,29.67,South,180,0.0,0.0,72,0.00,,,0.00,WUHU216HW,2013-08-17 08:04:00,
2013-08-17 01:09:00,61.2,52.2,29.67,South,180,0.0,0.0,72,0.00,,,0.00,WUHU216HW,2013-08-17 08:09:00,
2013-08-17 01:30:00,60.7,51.7,29.67,ENE,68,0.0,0.0,72,0.00,,,0.00,WUHU216HW,2013-08-17 08:30:00,
2013-08-17 01:35:00,60.7,51.7,29.67,ENE,68,0.0,0.0,72,0.00,,,0.00,WUHU216HW,2013-08-17 08:35:00,
2013-08-17 01:40:00,60.7,51.7,29.67,ENE,68,0.0,0.0,72,0.00,,,0.00,WUHU216HW,2013-08-17 08:40:00,
2013-08-17 01:59:00,59.8,51.5,29.67,SSW,203,0.0,0.0,74,0.00,,,0.00,WUHU216HW,2013-08-17 08:59:00,
2013-08-17 02:04:00,59.8,51.5,29.67,SSW,203,0.0,0.0,74,0.00,,,0.00,WUHU216HW,2013-08-17 09:04:00,
2013-08-17 02:09:00,59.8,51.5,29.67,SSW,203,0.0,0.0,74,0.00,,,0.00,WUHU216HW,2013-08-17 09:09:00,
2013-08-17 02:30:00,59.4,51.5,29.66,SSW,203,0.0,0.0,75,0.00,,,0.00,WUHU216HW,2013-08-17 09:30:00,
2013-08-17 02:35:00,59.4,51.5,29.66,SSW,203,0.0,0.0,75,0.00,,,0.00,WUHU216HW,2013-08-17 09:35:00,
2013-08-17 02:40:00,59.4,51.5,29.66,SSW,203,0.0,0.0,75,0.00,,,0.00,WUHU216HW,2013-08-17 09:40:00,
2013-08-17 02:59:00,58.9,51.3,29.67,SSW,203,0.0,0.0,76,0.00,,,0.00,WUHU216HW,2013-08-17 09:59:00,
2013-08-17 03:04:00,58.9,51.3,29.67,SSW,203,0.0,0.0,76,0.00,,,0.00,WUHU216HW,2013-08-17 10:04:00,
2013-08-17 03:09:00,58.9,51.3,29.67,SSW,203,0.0,0.0,76,0.00,,,0.00,WUHU216HW,2013-08-17 10:09:00,
2013-08-17 03:30:00,58.1,50.6,29.68,South,180,0.0,0.0,76,0.00,,,0.00,WUHU216HW,2013-08-17 10:30:00,
2013-08-17 03:35:00,58.3,50.8,29.68,South,180,0.0,0.0,76,0.00,,,0.00,WUHU216HW,2013-08-17 10:35:00,
2013-08-17 03:40:00,58.3,50.8,29.68,South,180,0.0,0.0,76,0.00,,,0.00,WUHU216HW,2013-08-17 10:40:00,
2013-08-17 03:59:00,57.8,50.6,29.68,East,90,0.0,0.0,77,0.00,,,0.00,WUHU216HW,2013-08-17 10:59:00,
2013-08-17 04:04:00,57.8,50.6,29.68,East,90,0.0,0.0,77,0.00,,,0.00,WUHU216HW,2013-08-17 11:04:00,
2013-08-17 04:09:00,57.8,50.6,29.68,East,90,0.0,0.0,77,0.00,,,0.00,WUHU216HW,2013-08-17 11:09:00,
2013-08-17 04:30:00,57.2,50.8,29.68,NW,315,0.0,0.0,79,0.00,,,0.00,WUHU216HW,2013-08-17 11:30:00,
2013-08-17 04:35:00,57.2,50.8,29.68,NW,315,0.0,0.0,79,0.00,,,0.00,WUHU216HW,2013-08-17 11:35:00,
2013-08-17 04:40:00,57.2,50.8,29.68,NW,315,0.0,0.0,79,0.00,,,0.00,WUHU216HW,2013-08-17 11:40:00,
2013-08-17 04:59:00,57.1,50.6,29.68,NNE,23,0.0,0.0,79,0.00,,,0.00,WUHU216HW,2013-08-17 11:59:00,
2013-08-17 05:04:00,57.1,50.6,29.68,NNE,23,0.0,0.0,79,0.00,,,0.00,WUHU216HW,2013-08-17 12:04:00,
2013-08-17 05:06:00,57.1,50.6,29.68,NNE,23,0.0,0.0,79,0.00,,,0.00,WUHU216HW,2013-08-17 12:06:00,
2013-08-17 05:30:00,56.7,50.6,29.68,North,0,0.0,0.0,80,0.00,,,0.00,WUHU216HW,2013-08-17 12:30:00,
2013-08-17 05:35:00,56.7,50.6,29.68,North,0,0.0,0.0,80,0.00,,,0.00,WUHU216HW,2013-08-17 12:35:00,
2013-08-17 05:40:00,56.7,50.6,29.68,North,0,0.0,0.0,80,0.00,,,0.00,WUHU216HW,2013-08-17 12:40:00,
2013-08-17 05:59:00,56.3,50.6,29.69,North,0,0.0,0.0,81,0.00,,,0.00,WUHU216HW,2013-08-17 12:59:00,
2013-08-17 06:04:00,56.3,50.6,29.69,North,0,0.0,0.0,81,0.00,,,0.00,WUHU216HW,2013-08-17 13:04:00,
2013-08-17 06:09:00,56.3,50.6,29.69,North,0,0.0,0.0,81,0.00,,,0.00,WUHU216HW,2013-08-17 13:09:00,
2013-08-17 06:30:00,56.0,50.2,29.69,NNW,338,0.0,0.0,81,0.00,,,0.00,WUHU216HW,2013-08-17 13:30:00,
2013-08-17 06:35:00,56.0,50.2,29.69,NNW,338,0.0,0.0,81,0.00,,,0.00,WUHU216HW,2013-08-17 13:35:00,
2013-08-17 06:40:00,56.0,50.2,29.69,NNW,338,0.0,0.0,81,0.00,,,0.00,WUHU216HW,2013-08-17 13:40:00,
2013-08-17 06:59:00,56.3,50.6,29.70,NNE,23,0.0,0.0,81,0.00,,,0.00,WUHU216HW,2013-08-17 13:59:00,
2013-08-17 07:04:00,56.2,50.4,29.70,NNE,23,0.0,0.0,81,0.00,,,0.00,WUHU216HW,2013-08-17 14:04:00,
2013-08-17 07:09:00,56.2,50.4,29.70,NNE,23,0.0,0.0,81,0.00,,,0.00,WUHU216HW,2013-08-17 14:09:00,
2013-08-17 07:30:00,65.5,57.8,29.71,NE,45,0.0,0.0,76,0.00,,,0.00,WUHU216HW,2013-08-17 14:30:00,
2013-08-17 07:35:00,65.7,57.5,29.71,NE,45,0.0,0.0,75,0.00,,,0.00,WUHU216HW,2013-08-17 14:35:00,
2013-08-17 07:40:00,65.7,57.5,29.71,NE,45,0.0,0.0,75,0.00,,,0.00,WUHU216HW,2013-08-17 14:40:00,
2013-08-17 07:59:00,71.3,58.9,29.71,NE,45,0.4,0.4,65,0.00,,,0.00,WUHU216HW,2013-08-17 14:59:00,
2013-08-17 08:04:00,71.1,58.7,29.71,NE,45,0.4,0.4,65,0.00,,,0.00,WUHU216HW,2013-08-17 15:04:00,
2013-08-17 08:09:00,71.1,58.7,29.71,NE,45,0.4,0.4,65,0.00,,,0.00,WUHU216HW,2013-08-17 15:09:00,
2013-08-17 08:30:00,74.0,61.5,29.71,SSE,158,1.1,1.1,65,0.00,,,0.00,WUHU216HW,2013-08-17 15:30:00,
2013-08-17 08:35:00,74.0,61.5,29.71,SSE,158,0.7,1.1,65,0.00,,,0.00,WUHU216HW,2013-08-17 15:35:00,
2013-08-17 08:40:00,74.0,61.5,29.71,SSE,158,0.7,1.1,65,0.00,,,0.00,WUHU216HW,2013-08-17 15:40:00,
2013-08-17 08:59:00,74.9,60.6,29.70,ENE,68,2.2,2.2,61,0.00,,,0.00,WUHU216HW,2013-08-17 15:59:00,
2013-08-17 09:04:00,75.1,60.8,29.70,NE,45,2.7,2.7,61,0.00,,,0.00,WUHU216HW,2013-08-17 16:04:00,
2013-08-17 09:09:00,75.1,60.8,29.70,NE,45,2.7,2.7,61,0.00,,,0.00,WUHU216HW,2013-08-17 16:09:00,
2013-08-17 09:30:00,76.7,60.3,29.70,SW,225,1.3,1.3,57,0.00,,,0.00,WUHU216HW,2013-08-17 16:30:00,
2013-08-17 09:35:00,76.7,60.8,29.70,SW,225,2.9,2.9,58,0.00,,,0.00,WUHU216HW,2013-08-17 16:35:00,
2013-08-17 09:40:00,76.7,60.8,29.70,SW,225,2.9,2.9,58,0.00,,,0.00,WUHU216HW,2013-08-17 16:40:00,
2013-08-17 09:59:00,78.1,60.6,29.71,NE,45,0.4,0.4,55,0.00,,,0.00,WUHU216HW,2013-08-17 16:59:00,
2013-08-17 10:04:00,78.1,60.6,29.71,NE,45,0.7,0.7,55,0.00,,,0.00,WUHU216HW,2013-08-17 17:04:00,
2013-08-17 10:09:00,78.1,60.6,29.71,NE,45,0.7,0.7,55,0.00,,,0.00,WUHU216HW,2013-08-17 17:09:00,
2013-08-17 10:30:00,80.6,61.4,29.71,ENE,68,2.9,2.9,52,0.00,,,0.00,WUHU216HW,2013-08-17 17:30:00,
2013-08-17 10:35:00,80.6,61.4,29.71,ENE,68,4.0,4.0,52,0.00,,,0.00,WUHU216HW,2013-08-17 17:35:00,
2013-08-17 10:40:00,80.6,61.4,29.71,ENE,68,4.0,4.0,52,0.00,,,0.00,WUHU216HW,2013-08-17 17:40:00,
2013-08-17 10:59:00,80.5,60.7,29.71,SSE,158,0.4,0.4,51,0.00,,,0.00,WUHU216HW,2013-08-17 17:59:00,
2013-08-17 11:04:00,80.6,60.9,29.71,ENE,68,2.5,2.5,51,0.00,,,0.00,WUHU216HW,2013-08-17 18:04:00,
2013-08-17 11:09:00,80.6,60.9,29.71,ENE,68,2.5,2.5,51,0.00,,,0.00,WUHU216HW,2013-08-17 18:09:00,
2013-08-17 11:30:00,81.5,60.5,29.70,ESE,113,1.8,1.8,49,0.00,,,0.00,WUHU216HW,2013-08-17 18:30:00,
2013-08-17 11:35:00,81.4,60.3,29.70,ESE,113,1.8,1.8,49,0.00,,,0.00,WUHU216HW,2013-08-17 18:35:00,
2013-08-17 11:40:00,81.4,60.3,29.70,ESE,113,1.8,1.8,49,0.00,,,0.00,WUHU216HW,2013-08-17 18:40:00,
2013-08-17 11:59:00,81.4,60.3,29.69,NW,315,0.9,0.9,49,0.00,,,0.00,WUHU216HW,2013-08-17 18:59:00,
2013-08-17 12:04:00,81.4,60.3,29.69,NW,315,0.9,0.9,49,0.00,,,0.00,WUHU216HW,2013-08-17 19:04:00,
2013-08-17 12:09:00,81.4,60.3,29.69,NW,315,0.9,0.9,49,0.00,,,0.00,WUHU216HW,2013-08-17 19:09:00,
2013-08-17 12:30:00,80.3,59.9,29.68,SE,135,2.9,2.9,50,0.00,,,0.00,WUHU216HW,2013-08-17 19:30:00,
2013-08-17 12:35:00,80.3,59.9,29.68,East,90,3.1,3.1,50,0.00,,,0.00,WUHU216HW,2013-08-17 19:35:00,
2013-08-17 12:40:00,80.3,59.9,29.68,East,90,3.1,3.1,50,0.00,,,0.00,WUHU216HW,2013-08-17 19:40:00,
2013-08-17 12:59:00,80.8,60.5,29.68,SE,135,3.4,3.4,50,0.00,,,0.00,WUHU216HW,2013-08-17 19:59:00,
2013-08-17 13:04:00,80.8,60.5,29.68,ENE,68,0.9,3.4,50,0.00,,,0.00,WUHU216HW,2013-08-17 20:04:00,
2013-08-17 13:09:00,80.8,60.5,29.68,ENE,68,0.9,3.4,50,0.00,,,0.00,WUHU216HW,2013-08-17 20:09:00,
2013-08-17 13:30:00,81.4,61.5,29.66,SSE,158,3.6,3.6,51,0.00,,,0.00,WUHU216HW,2013-08-17 20:30:00,
2013-08-17 13:35:00,81.4,61.5,29.66,SE,135,2.5,3.6,51,0.00,,,0.00,WUHU216HW,2013-08-17 20:35:00,
2013-08-17 13:40:00,81.4,61.5,29.66,SE,135,2.5,2.5,51,0.00,,,0.00,WUHU216HW,2013-08-17 20:40:00,
2013-08-17 13:59:00,81.4,60.9,29.66,WNW,293,5.4,5.4,50,0.00,,,0.00,WUHU216HW,2013-08-17 20:59:00,
2013-08-17 14:04:00,81.4,60.9,29.66,NW,315,4.7,5.4,50,0.00,,,0.00,WUHU216HW,2013-08-17 21:04:00,
2013-08-17 14:09:00,81.4,60.9,29.66,NW,315,4.7,4.7,50,0.00,,,0.00,WUHU216HW,2013-08-17 21:09:00,
2013-08-17 14:30:00,80.6,60.3,29.65,WSW,248,3.4,3.4,50,0.00,,,0.00,WUHU216HW,2013-08-17 21:30:00,
2013-08-17 14:35:00,80.6,60.3,29.65,WSW,248,3.4,3.4,50,0.00,,,0.00,WUHU216HW,2013-08-17 21:35:00,
2013-08-17 14:40:00,80.6,60.3,29.65,WSW,248,3.4,3.4,50,0.00,,,0.00,WUHU216HW,2013-08-17 21:40:00,
2013-08-17 14:59:00,81.7,60.7,29.65,North,0,1.1,1.1,49,0.00,,,0.00,WUHU216HW,2013-08-17 21:59:00,
2013-08-17 15:04:00,81.7,60.7,29.65,North,0,1.1,1.1,49,0.00,,,0.00,WUHU216HW,2013-08-17 22:04:00,
2013-08-17 15:09:00,81.7,60.7,29.65,North,0,1.1,1.1,49,0.00,,,0.00,WUHU216HW,2013-08-17 22:09:00,
2013-08-17 15:30:00,83.2,59.0,29.64,NW,315,4.3,4.3,44,0.00,,,0.00,WUHU216HW,2013-08-17 22:30:00,
2013-08-17 15:35:00,83.2,59.0,29.64,SSW,203,3.1,4.3,44,0.00,,,0.00,WUHU216HW,2013-08-17 22:35:00,
2013-08-17 15:40:00,83.2,59.0,29.64,SSW,203,3.1,3.1,44,0.00,,,0.00,WUHU216HW,2013-08-17 22:40:00,
2013-08-17 15:59:00,83.2,59.0,29.63,WSW,248,4.0,4.0,44,0.00,,,0.00,WUHU216HW,2013-08-17 22:59:00,
2013-08-17 16:04:00,83.2,59.0,29.63,WSW,248,4.3,4.3,44,0.00,,,0.00,WUHU216HW,2013-08-17 23:04:00,
2013-08-17 16:09:00,83.2,59.0,29.63,WSW,248,4.3,4.3,44,0.00,,,0.00,WUHU216HW,2013-08-17 23:09:00,
2013-08-17 16:30:00,83.7,59.4,29.63,WSW,248,6.3,6.3,44,0.00,,,0.00,WUHU216HW,2013-08-17 23:30:00,
2013-08-17 16:35:00,83.7,59.4,29.63,NW,315,4.9,6.3,44,0.00,,,0.00,WUHU216HW,2013-08-17 23:35:00,
2013-08-17 16:40:00,83.7,59.4,29.63,NW,315,4.9,5.8,44,0.00,,,0.00,WUHU216HW,2013-08-17 23:40:00,
2013-08-17 16:59:00,83.2,59.0,29.63,WSW,248,4.0,4.0,44,0.00,,,0.00,WUHU216HW,2013-08-17 23:59:00,
2013-08-17 17:04:00,83.2,59.0,29.63,SW,225,4.7,4.7,44,0.00,,,0.00,WUHU216HW,2013-08-18 00:04:00,
2013-08-17 17:09:00,83.2,59.0,29.63,SW,225,4.7,4.7,44,0.00,,,0.00,WUHU216HW,2013-08-18 00:09:00,
2013-08-17 17:30:00,82.6,58.4,29.64,SW,225,2.7,2.7,44,0.00,,,0.00,WUHU216HW,2013-08-18 00:30:00,
2013-08-17 17:35:00,82.6,58.4,29.64,South,180,1.3,2.7,44,0.00,,,0.00,WUHU216HW,2013-08-18 00:35:00,
2013-08-17 17:40:00,82.6,58.4,29.64,South,180,1.3,1.3,44,0.00,,,0.00,WUHU216HW,2013-08-18 00:40:00,
2013-08-17 17:59:00,82.3,58.1,29.63,East,90,2.2,2.2,44,0.00,,,0.00,WUHU216HW,2013-08-18 00:59:00,
2013-08-17 18:04:00,82.3,58.1,29.63,SSW,203,3.1,3.1,44,0.00,,,0.00,WUHU216HW,2013-08-18 01:04:00,
2013-08-17 18:09:00,82.3,58.1,29.63,SSW,203,3.1,3.1,44,0.00,,,0.00,WUHU216HW,2013-08-18 01:09:00,
2013-08-17 18:30:00,81.5,58.7,29.63,SW,225,2.7,2.7,46,0.00,,,0.00,WUHU216HW,2013-08-18 01:30:00,
2013-08-17 18:35:00,81.4,58.5,29.63,SW,225,1.8,2.7,46,0.00,,,0.00,WUHU216HW,2013-08-18 01:35:00,
2013-08-17 18:40:00,81.4,58.5,29.63,SW,225,1.8,1.8,46,0.00,,,0.00,WUHU216HW,2013-08-18 01:40:00,
2013-08-17 18:59:00,80.3,58.8,29.63,NNW,338,1.6,1.6,48,0.00,,,0.00,WUHU216HW,2013-08-18 01:59:00,
2013-08-17 19:04:00,80.3,58.8,29.63,NW,315,0.2,1.6,48,0.00,,,0.00,WUHU216HW,2013-08-18 02:04:00,
2013-08-17 19:09:00,80.3,58.8,29.63,NW,315,0.2,1.6,48,0.00,,,0.00,WUHU216HW,2013-08-18 02:09:00,
2013-08-17 19:30:00,77.2,58.2,29.64,ESE,113,0.7,0.7,52,0.00,,,0.00,WUHU216HW,2013-08-18 02:30:00,
2013-08-17 19:35:00,77.2,58.2,29.64,ESE,113,0.7,0.7,52,0.00,,,0.00,WUHU216HW,2013-08-18 02:35:00,
2013-08-17 19:40:00,77.2,58.2,29.64,ESE,113,0.7,0.7,52,0.00,,,0.00,WUHU216HW,2013-08-18 02:40:00,
2013-08-17 19:59:00,74.7,58.0,29.65,SSE,158,0.2,0.2,56,0.00,,,0.00,WUHU216HW,2013-08-18 02:59:00,
2013-08-17 20:04:00,74.5,57.8,29.65,SSE,158,0.2,0.2,56,0.00,,,0.00,WUHU216HW,2013-08-18 03:04:00,
2013-08-17 20:09:00,74.5,57.8,29.65,SSE,158,0.2,0.2,56,0.00,,,0.00,WUHU216HW,2013-08-18 03:09:00,
2013-08-17 20:30:00,72.4,57.3,29.65,East,90,0.0,0.0,59,0.00,,,0.00,WUHU216HW,2013-08-18 03:30:00,
2013-08-17 20:35:00,72.4,57.3,29.65,East,90,0.0,0.0,59,0.00,,,0.00,WUHU216HW,2013-08-18 03:35:00,
2013-08-17 20:40:00,72.4,57.3,29.65,East,90,0.0,0.0,59,0.00,,,0.00,WUHU216HW,2013-08-18 03:40:00,
2013-08-17 20:59:00,70.2,56.2,29.66,NW,315,0.2,0.2,61,0.00,,,0.00,WUHU216HW,2013-08-18 03:59:00,
2013-08-17 21:01:00,70.2,56.2,29.66,NNE,23,0.9,0.9,61,0.00,,,0.00,WUHU216HW,2013-08-18 04:01:00,
2013-08-17 21:06:00,70.2,56.2,29.66,NNE,23,0.9,0.9,61,0.00,,,0.00,WUHU216HW,2013-08-18 04:06:00,
2013-08-17 21:30:00,68.8,55.6,29.67,NNE,23,0.0,0.0,63,0.00,,,0.00,WUHU216HW,2013-08-18 04:30:00,
2013-08-17 21:35:00,68.8,55.6,29.68,NNE,23,0.4,0.4,63,0.00,,,0.00,WUHU216HW,2013-08-18 04:35:00,
2013-08-17 21:40:00,68.8,55.6,29.68,NNE,23,0.4,0.4,63,0.00,,,0.00,WUHU216HW,2013-08-18 04:40:00,
2013-08-17 21:59:00,67.7,55.4,29.69,East,90,0.0,0.0,65,0.00,,,0.00,WUHU216HW,2013-08-18 04:59:00,
2013-08-17 22:04:00,67.7,55.4,29.69,East,90,0.0,0.0,65,0.00,,,0.00,WUHU216HW,2013-08-18 05:04:00,
2013-08-17 22:09:00,67.7,55.4,29.69,East,90,0.0,0.0,65,0.00,,,0.00,WUHU216HW,2013-08-18 05:09:00,
2013-08-17 22:30:00,66.2,55.4,29.69,WSW,248,0.0,0.0,68,0.00,,,0.00,WUHU216HW,2013-08-18 05:30:00,
2013-08-17 22:35:00,66.2,55.4,29.69,WSW,248,0.0,0.0,68,0.00,,,0.00,WUHU216HW,2013-08-18 05:35:00,
2013-08-17 22:40:00,66.2,55.4,29.69,WSW,248,0.0,0.0,68,0.00,,,0.00,WUHU216HW,2013-08-18 05:40:00,
2013-08-17 22:59:00,65.2,55.2,29.69,SW,225,0.0,0.0,70,0.00,,,0.00,WUHU216HW,2013-08-18 05:59:00,
2013-08-17 23:04:00,65.2,55.2,29.69,SW,225,0.0,0.0,70,0.00,,,0.00,WUHU216HW,2013-08-18 06:04:00,
2013-08-17 23:09:00,65.2,55.2,29.69,SW,225,0.0,0.0,70,0.00,,,0.00,WUHU216HW,2013-08-18 06:09:00,
2013-08-17 23:30:00,64.3,55.4,29.70,ESE,113,0.0,0.0,73,0.00,,,0.00,WUHU216HW,2013-08-18 06:30:00,
2013-08-17 23:35:00,64.3,55.1,29.70,ESE,113,0.0,0.0,72,0.00,,,0.00,WUHU216HW,2013-08-18 06:35:00,
2013-08-17 23:40:00,64.3,55.1,29.70,ESE,113,0.0,0.0,72,0.00,,,0.00,WUHU216HW,2013-08-18 06:40:00,
2013-08-17 23:59:00,63.5,55.1,29.70,ENE,68,0.4,0.4,74,0.00,,,0.00,WUHU216HW,2013-08-18 06:59:00,